Tracking 22879 objects as of 21-Apr-2021
HD Live streaming from Space Station
objects crossing your sky now

OBJECT L

Track OBJECT L now!
10-day predictions


NORAD ID: 43841
Int'l Code: 2018-102L
Perigee: 530.8 km
Apogee: 552.9 km
Inclination: 97.5 °
Period: 95.3 minutes
Semi major axis: 6912 km
RCS: Unknown
Launch date: December 7, 2018
Source: (TBD)
Launch site: Jiuquan Satellite Launch Center, China (JSC)
aabbcc
Your satellite tracking list
Your tracking list is empty




NASA's NSSDC Master Catalog

Two Line Element Set (TLE):
1 43841U 18102L   21111.56684314  .00002608  00000-0  16186-3 0  9996
2 43841  97.5489 191.6336 0015973 193.2929 278.7333 15.10496543130705
Source of the keplerian elements: AFSPC